Location: Newark
(43.0000°N, 1.6781°W)
Time: 11:41:05
(UTC+00:00)

Tiros 1 - Visible Passes

Search period start: 27 September 2022 00:00
Search period end: 07 October 2022 00:00
Orbit: 629 x 663 km, 48.4° (Epoch: 26 September)

Date Brightness Start Highest point End Pass type
(mag) Time Alt. Az. Time Alt. Az. Time Alt. Az.
27 Sep 9.7 02:29:44 19° ENE 02:29:44 19° ENE 02:31:05 10° ENE visible
27 Sep 7.9 04:07:23 33° NW 04:08:52 44° N 04:13:24 10° ENE visible
28 Sep 9.0 02:54:17 29° NE 02:54:17 29° NE 02:56:45 10° ENE visible
28 Sep 8.0 04:31:56 20° WNW 04:34:49 44° N 04:39:20 10° ENE visible
29 Sep 8.3 03:18:52 40° NNE 03:18:52 40° NNE 03:22:31 10° ENE visible
29 Sep 7.8 04:56:30 12° WNW 05:00:43 53° NNE 05:05:20 10° E visible
30 Sep 10.3 02:05:49 10° ENE 02:05:49 10° ENE 02:05:53 10° ENE visible
30 Sep 7.9 03:43:28 42° NNW 03:43:54 43° N 03:48:26 10° ENE visible
30 Sep 7.3 05:21:45 10° WNW 05:26:31 78° NNE 05:31:12 10° ESE visible
01 Oct 9.8 02:30:28 17° ENE 02:30:28 17° ENE 02:31:38 10° ENE visible
01 Oct 7.8 04:08:07 34° NW 04:09:50 51° NNE 04:14:26 10° E visible
02 Oct 9.2 02:55:11 26° ENE 02:55:11 26° ENE 02:57:32 10° ENE visible
02 Oct 7.3 04:32:51 25° WNW 04:35:38 74° NNE 04:40:20 10° ESE visible
03 Oct 8.3 03:19:59 41° NE 03:19:59 41° NE 03:23:31 10° E visible
03 Oct 7.2 04:57:39 17° WNW 05:01:16 66° SSW 05:05:56 10° SE visible
04 Oct 7.3 03:44:54 69° NE 03:44:54 69° NE 03:49:27 10° ESE visible
04 Oct 8.0 05:22:34 11° WNW 05:26:43 34° SW 05:30:56 10° SSE visible
05 Oct 10.1 02:32:15 12° E 02:32:15 12° E 02:32:37 10° E visible
05 Oct 7.0 04:09:56 65° WSW 04:10:24 72° SSW 04:15:06 10° SE visible
06 Oct 9.6 02:57:25 17° E 02:57:25 17° E 02:58:33 10° ESE visible
06 Oct 7.7 04:35:06 35° WSW 04:35:52 37° SW 04:40:12 10° SSE visible
